Location: Elliott Corner
(37.4627°N, 119.7746°W)
Time: 22:35:04
(UTC+00:00)

COSMOS 2428 - Pass Details

Date: 10 September 2024
Orbit: 843 x 857 km, 70.9° (Epoch: 13 October)

Event Time Altitude Azimuth Distance (km) Brightness Sun altitude
Rises 13:01:54 0° 340° (NNW) 3,436 5.8 -7.8°
Reaches altitude 10° 13:04:23 10° 344° (NNW) 2,496 5.1 -7.3°
Maximum altitude 13:10:05 64° 66° (ENE) 943 3.3 -6.2°
Drops below altitude 10° 13:15:45 10° 148° (SSE) 2,478 5.5 -5.1°
Sets 13:18:13 0° 151° (SSE) 3,409 6.1 -4.6°
